| time (UTC) | temp F | wind direction | speed knots | gust knots | rain 1hr in | rain 24hr in | rain mn in | humidity % | barometer mb |
| 20260504030009 | 57 | 24 | 0.0 | 0.0 | 0.00 | 0.00 | 0.00 | 80 | 1014.2 |
| 20260504024009 | 58 | 320 | 2.6 | 6.1 | 0.00 | 0.00 | 0.00 | 77 | 1013.9 |
| 20260504023010 | 58 | 342 | 1.7 | 6.1 | 0.00 | 0.00 | 0.00 | 75 | 1013.9 |
| 20260504022009 | 59 | 0 | 1.7 | 7.8 | 0.00 | 0.00 | 0.00 | 74 | 1013.8 |
| 20260504021009 | 60 | 246 | 0.9 | 7.8 | 0.00 | 0.00 | 0.00 | 72 | 1013.9 |
| 20260504020009 | 60 | 347 | 0.9 | 6.1 | 0.00 | 0.00 | 0.00 | 71 | 1013.9 |
| 20260504015009 | 60 | 233 | 0.0 | 6.1 | 0.00 | 0.00 | 0.00 | 70 | 1013.9 |
| 20260504014010 | 61 | 303 | 1.7 | 4.3 | 0.00 | 0.00 | 0.00 | 70 | 1013.8 |
| 20260504013011 | 61 | 12 | 2.6 | 7.8 | 0.00 | 0.00 | 0.00 | 68 | 1013.9 |
| 20260504012009 | 62 | 329 | 0.9 | 6.1 | 0.00 | 0.00 | 0.00 | 67 | 1014.0 |
| 20260504011009 | 62 | 16 | 0.9 | 7.0 | 0.00 | 0.00 | 0.00 | 66 | 1013.9 |
| 20260504010010 | 62 | 268 | 1.7 | 7.8 | 0.00 | 0.00 | 0.00 | 65 | 1014.0 |
| 20260504005009 | 63 | 348 | 0.9 | 10.4 | 0.00 | 0.00 | 0.00 | 64 | 1013.8 |
| 20260504004009 | 64 | 2 | 1.7 | 7.0 | 0.00 | 0.00 | 0.00 | 61 | 1013.8 |
| 20260504002010 | 65 | 13 | 0.0 | 7.0 | 0.00 | 0.00 | 0.00 | 59 | 1013.8 |
| 20260504001010 | 65 | 340 | 4.3 | 11.3 | 0.00 | 0.00 | 0.00 | 58 | 1013.9 |
| 20260504000011 | 65 | 19 | 1.7 | 8.7 | 0.00 | 0.00 | 0.00 | 61 | 1013.7 |
| 20260503235010 | 65 | 272 | 1.7 | 7.0 | 0.00 | 0.00 | 0.00 | 59 | 1013.6 |
| 20260503234011 | 65 | 344 | 1.7 | 8.7 | 0.00 | 0.00 | 0.00 | 61 | 1013.6 |
| 20260503233010 | 65 | 7 | 6.1 | 13.0 | 0.00 | 0.00 | 0.00 | 59 | 1013.8 |
| 20260503232010 | 64 | 356 | 2.6 | 8.7 | 0.00 | 0.00 | 0.00 | 61 | 1013.8 |
| 20260503231010 | 66 | 355 | 2.6 | 7.0 | 0.00 | 0.00 | 0.00 | 57 | 1013.8 |
| 20260503230010 | 66 | 263 | 1.7 | 6.1 | 0.00 | 0.00 | 0.00 | 59 | 1013.8 |
| 20260503225010 | 64 | 1 | 0.0 | 7.8 | 0.00 | 0.00 | 0.00 | 61 | 1013.9 |
| 20260503224010 | 65 | 24 | 1.7 | 8.7 | 0.00 | 0.00 | 0.00 | 61 | 1014.0 |
| 20260503223010 | 64 | 336 | 2.6 | 10.4 | 0.00 | 0.00 | 0.00 | 64 | 1014.0 |
| 20260503222010 | 63 | 340 | 0.9 | 7.8 | 0.00 | 0.00 | 0.00 | 64 | 1014.2 |
| 20260503221010 | 63 | 259 | 1.7 | 10.4 | 0.00 | 0.00 | 0.00 | 65 | 1014.5 |
| 20260503220010 | 64 | 3 | 4.3 | 7.8 | 0.00 | 0.00 | 0.00 | 63 | 1014.5 |
| 20260503215011 | 64 | 9 | 0.9 | 7.8 | 0.00 | 0.00 | 0.00 | 65 | 1014.5 |
| 20260503214010 | 64 | 13 | 4.3 | 8.7 | 0.00 | 0.00 | 0.00 | 64 | 1014.5 |
| 20260503213010 | 64 | 1 | 4.3 | 11.3 | 0.00 | 0.00 | 0.00 | 66 | 1014.2 |
| 20260503212010 | 64 | 356 | 4.3 | 10.4 | 0.00 | 0.00 | 0.00 | 66 | 1014.2 |
| 20260503211010 | 65 | 338 | 4.3 | 10.4 | 0.00 | 0.00 | 0.00 | 64 | 1014.1 |
| 20260503210010 | 64 | 335 | 2.6 | 10.4 | 0.00 | 0.00 | 0.00 | 67 | 1014.1 |
| 20260503204009 | 64 | 339 | 4.3 | 11.3 | 0.00 | 0.00 | 0.00 | 66 | 1014.2 |
| 20260503203010 | 63 | 341 | 5.2 | 11.3 | 0.00 | 0.00 | 0.00 | 68 | 1014.1 |
| 20260503202010 | 63 | 320 | 0.9 | 7.0 | 0.00 | 0.00 | 0.00 | 69 | 1014.2 |
| 20260503201010 | 63 | 307 | 4.3 | 10.4 | 0.00 | 0.00 | 0.00 | 70 | 1014.1 |
| 20260503200011 | 62 | 1 | 0.0 | 12.2 | 0.00 | 0.00 | 0.00 | 73 | 1014.2 |
| 20260503195009 | 63 | 347 | 5.2 | 11.3 | 0.00 | 0.00 | 0.00 | 72 | 1014.4 |
| 20260503194010 | 63 | 340 | 2.6 | 8.7 | 0.00 | 0.00 | 0.00 | 72 | 1014.2 |
| 20260503193009 | 63 | 313 | 3.5 | 11.3 | 0.00 | 0.00 | 0.00 | 73 | 1014.2 |
| 20260503191010 | 62 | 333 | 2.6 | 8.7 | 0.00 | 0.00 | 0.00 | 74 | 1014.4 |
| 20260503190009 | 61 | 138 | 1.7 | 8.7 | 0.00 | 0.00 | 0.00 | 77 | 1014.4 |
| 20260503185010 | 61 | 0 | 1.7 | 8.7 | 0.00 | 0.00 | 0.00 | 78 | 1014.5 |
| 20260503184009 | 60 | 4 | 4.3 | 8.7 | 0.00 | 0.00 | 0.00 | 81 | 1014.4 |
| 20260503183010 | 60 | 11 | 2.6 | 11.3 | 0.00 | 0.00 | 0.00 | 83 | 1014.5 |
| 20260503182010 | 59 | 348 | 1.7 | 8.7 | 0.00 | 0.00 | 0.00 | 86 | 1014.5 |
| 20260503181009 | 58 | 5 | 4.3 | 10.4 | 0.00 | 0.00 | 0.00 | 85 | 1014.5 |
| 20260503180009 | 59 | 0 | 0.9 | 8.7 | 0.00 | 0.00 | 0.00 | 86 | 1014.4 |
| 20260503175010 | 58 | 357 | 4.3 | 7.8 | 0.00 | 0.00 | 0.00 | 88 | 1014.4 |
| 20260503172009 | 57 | 357 | 4.3 | 7.0 | 0.00 | 0.00 | 0.00 | 92 | 1014.0 |
| 20260503171010 | 56 | 14 | 0.0 | 7.0 | 0.00 | 0.00 | 0.00 | 96 | 1014.0 |
| 20260503151009 | 55 | 337 | 2.6 | 6.1 | 0.00 | 0.00 | 0.00 | 97 | 1013.4 |
| 20260503131010 | 52 | 150 | 0.0 | 0.0 | 0.00 | 0.00 | 0.00 | 98 | 1011.6 |
| 20260503081010 | 54 | 109 | 0.0 | 0.0 | 0.00 | 0.00 | 0.00 | 97 | 1013.0 |
| 20260503071010 | 55 | 109 | 0.0 | 0.0 | 0.00 | 0.00 | 0.00 | 96 | 1013.5 |
| 20260503055010 | 57 | 0 | 0.0 | 0.0 | 0.00 | 0.00 | 0.00 | 94 | 1013.9 |
| 20260503054009 | 57 | 0 | 0.0 | 0.0 | 0.00 | 0.00 | 0.00 | 93 | 1014.0 |
| 20260503053010 | 57 | 0 | 0.0 | 0.0 | 0.00 | 0.00 | 0.00 | 92 | 1013.9 |
| 20260503052010 | 57 | 0 | 0.0 | 0.0 | 0.00 | 0.00 | 0.00 | 92 | 1013.9 |
| 20260503051010 | 58 | 0 | 0.0 | 0.0 | 0.00 | 0.00 | 0.00 | 91 | 1014.0 |
| 20260503045011 | 59 | 0 | 0.0 | 0.0 | 0.00 | 0.00 | 0.00 | 89 | 1014.0 |
| 20260503043010 | 60 | 0 | 0.0 | 0.0 | 0.00 | 0.00 | 0.00 | 86 | 1013.9 |
| 20260503042010 | 60 | 0 | 0.0 | 0.0 | 0.00 | 0.00 | 0.00 | 84 | 1013.8 |
| 20260503041009 | 61 | 0 | 0.0 | 0.0 | 0.00 | 0.00 | 0.00 | 82 | 1013.8 |
| 20260503040010 | 61 | 0 | 0.0 | 0.0 | 0.00 | 0.00 | 0.00 | 80 | 1013.8 |
| 20260503034009 | 63 | 0 | 0.0 | 0.0 | 0.00 | 0.00 | 0.00 | 77 | 1013.7 |
| 20260503033009 | 63 | 0 | 0.0 | 0.0 | 0.00 | 0.00 | 0.00 | 76 | 1013.6 |
| 20260503032009 | 64 | 0 | 0.0 | 0.0 | 0.00 | 0.00 | 0.00 | 74 | 1013.5 |
| 20260503031010 | 65 | 0 | 0.0 | 0.0 | 0.00 | 0.00 | 0.00 | 72 | 1013.5 |